Red Bluff, CA

9:40 PM PST on November 21, 2019 (GMT -0800)
Red Bluff Municipal

Weather History for KRBL - September, 2019

Change the Weather History Date:

Friday, September 27, 2019

  Actual Average Record
Temperature  
Mean Temperature 68 °F -  
Max Temperature 73 °F 86 °F 105 °F (1944)
Min Temperature 62 °F 56 °F 42 °F (1986)
Cooling Degree Days 2    
Growing Degree Days 18 (Base 50)    
Moisture  
Dew Point 56 °F    
Average Humidity 68    
Maximum Humidity 80    
Minimum Humidity 47    
Precipitation  
Precipitation 0.00 in - - ()
Sea Level Pressure  
Sea Level Pressure 29.84 in    
Wind  
Wind Speed 8 mph (South)    
Max Wind Speed 12 mph    
Max Gust Speed -    
Visibility 10 miles    
Events      
Averages and records for this station are not official NWS values.
T = Trace of Precipitation, MM = Missing Value Source: NWS Daily Summary

Daily Weather History Graph

Daily Weather History Graph

Search for Another Location

Airport or City:

Astronomy

Sep. 27, 2019 Rise Set
Actual Time 7:01 AM PDT 6:58 PM PDT
Civil Twilight 6:34 AM PDT 7:25 PM PDT
Nautical Twilight 6:02 AM PDT 7:56 PM PDT
Astronomical Twilight 5:30 AM PDT 8:28 PM PDT
Moon 5:29 AM PDT (9/27) 6:52 PM PDT (9/27)
Length of Visible Light 12h 50m
Length of Day
11h 56m
Waning Crescent, 1% of the Moon is Illuminated
Sep 27
Waning Crescent
Sep 28
New
Oct 5
First Quarter
Oct 13
Full
Oct 21
Last Quarter

Hourly Weather History & Observations

Time (PDT) Temp. Dew Point Humidity Pressure Visibility Wind Dir Wind Speed Gust Speed Precip Events Conditions
12:54 AM 70.0 °F 57.0 °F 63% 29.85 in 10.0 mi South 8.1 mph - N/A   Clear
1:54 AM 68.0 °F 57.0 °F 68% 29.86 in 10.0 mi South 9.2 mph - N/A   Clear
2:54 AM 66.9 °F 57.0 °F 70% 29.86 in 10.0 mi SSE 11.5 mph - N/A   Clear
3:54 AM 64.9 °F 55.9 °F 73% 29.86 in 10.0 mi SSE 8.1 mph - N/A   Clear
4:54 AM 64.0 °F 55.9 °F 75% 29.88 in 10.0 mi South 6.9 mph - N/A   Clear
5:54 AM 63.0 °F 55.9 °F 78% 29.88 in 10.0 mi SSE 3.5 mph - N/A   Clear
6:54 AM 62.1 °F 55.9 °F 80% 29.89 in 10.0 mi SSE 5.8 mph - N/A   Clear
7:19 AM 63.0 °F 55.9 °F 78% 29.91 in 10.0 mi SSE 5.8 mph - N/A   Mostly Cloudy
7:28 AM 63.0 °F 55.9 °F 78% 29.91 in 10.0 mi SSE 9.2 mph - N/A   Mostly Cloudy
7:54 AM 63.0 °F 55.9 °F 78% 29.91 in 10.0 mi SSE 8.1 mph - N/A   Overcast
8:54 AM 64.0 °F 55.9 °F 75% 29.91 in 10.0 mi SSE 8.1 mph - N/A   Overcast
9:54 AM 64.9 °F 55.9 °F 73% 29.92 in 10.0 mi SE 10.4 mph - N/A   Overcast
10:01 AM 64.9 °F 55.9 °F 73% 29.93 in 10.0 mi SSE 9.2 mph - N/A   Overcast
10:54 AM 66.0 °F 55.0 °F 68% 29.91 in 10.0 mi South 9.2 mph - N/A   Overcast
11:43 AM 68.0 °F 55.9 °F 65% 29.90 in 10.0 mi South 10.4 mph - N/A   Overcast
11:54 AM 69.1 °F 55.9 °F 63% 29.89 in 10.0 mi South 10.4 mph - N/A   Overcast
12:17 PM 69.1 °F 55.9 °F 63% 29.89 in 10.0 mi South 10.4 mph - N/A   Overcast
12:42 PM 69.1 °F 55.9 °F 63% 29.88 in 10.0 mi South 8.1 mph - N/A   Overcast
12:54 PM 69.1 °F 55.9 °F 63% 29.87 in 10.0 mi SSE 8.1 mph - N/A   Overcast
1:54 PM 70.0 °F 55.9 °F 61% 29.84 in 10.0 mi SSE 8.1 mph - N/A   Overcast
2:54 PM 71.1 °F 55.0 °F 57% 29.82 in 10.0 mi South 4.6 mph - N/A   Overcast
3:54 PM 73.0 °F 55.9 °F 55% 29.78 in 10.0 mi SSW 10.4 mph - N/A   Scattered Clouds
4:54 PM 72.0 °F 55.9 °F 57% 29.76 in 10.0 mi South 8.1 mph - N/A   Scattered Clouds
5:54 PM 71.1 °F 55.9 °F 59% 29.75 in 10.0 mi South 8.1 mph - N/A   Clear
6:54 PM 69.1 °F 55.9 °F 63% 29.73 in 10.0 mi South 6.9 mph - N/A   Clear
7:54 PM 66.9 °F 55.0 °F 66% 29.73 in 10.0 mi SSW 4.6 mph - N/A   Clear
8:54 PM 64.0 °F 55.0 °F 73% 29.73 in 10.0 mi South 4.6 mph - N/A   Scattered Clouds
9:54 PM 64.9 °F 55.0 °F 70% 29.72 in 10.0 mi WSW 4.6 mph - N/A   Scattered Clouds
10:54 PM 64.0 °F 55.0 °F 73% 29.72 in 10.0 mi Calm Calm - N/A   Clear
11:54 PM 62.1 °F 54.0 °F 75% 29.71 in 10.0 mi Calm Calm - N/A   Scattered Clouds